COSMOS 2251 DEB, 33785

Orbit data source: Space-Track

COSMOS 2251 DEB, 33785 is space debris in LEO originally from a launch on Wed, 16 Jun 1993 UTC launched from the Plesetsk Missile And Space Complex (PKMTR). The debris from Iridium 33, an American commercial communications satellite, has been tracked extensively since its accidental collision with the defunct Russian satellite Cosmos 2251 in 2009. This event, occurring at high speed in low Earth orbit (LEO), generated thousands of pieces of space debris, significantly increasing the risk of further collisions. The Iridium 33 debris cloud has impacted space traffic management and orbital debris mitigation strategies, making it a subject of ongoing study in space situational awareness.

Loading next visibility...
COSMOS 2251 DEB details
Identifier
33785, 1993-036AA
Orbit
LEO
Last TLE update17 hours ago
Origin
Flag of CISKVR (CIS)
ManufacturerUnknown
MissionSpacecraft
Bus & MotorUnknown
MassUnknown
Launch date (UTC)
1993-06-16 (31 years ago)
Launch vehicleUnknown
Launch site
Plesetsk Missile And Space Complex (PKMTR)
Object type
Payload
Rocket body
Debris
Shape & HBRUnknown
Radar Cross SectionSmall (<0.1 m²)

Expand to show TLE details & history

TLE from 17 hours ago
0 COSMOS 2251 DEB
1 33785U 93036AA  24346.54986767  .00013200  00000-0  27071-2 0  9993
2 33785  73.8740  52.7406 0023413  63.3704  48.8210 14.60569481831523
Epoch: 2024-12-11T13:11Z
Definitive object data (Epoch: 2024-12-11T13:11:48.566Z)
Latitude62.75275°
Longitude-79.90114°
Altitude690.87 km
Speed7.523 km/s
True Right ascension13h 15m 10s
True Declination62° 36' 40"
Sunlit
Object was in daylight at TLE epoch
Visualization TLE readout
Latitude-67.03038°
Longitude89.93453°
Altitude727.961 km
Speed7.484 km/s
Apparent Right ascension19h 07m 58s
Apparent Declination-67° 10' 21"
Sunlit
Object is in daylight
Visualization observer readout
Local Sidereal Time04:51:20
Azimuth203.503° SW
Elevation-56.891°
Doppler factor1
Orbital elements
Apogee altitude705.493 km
Perigee altitude672.401 km
Semi-major axis7,067.084 km
Eccentricity0.0023413
Inclination73.874°
RAAN52.7406°
Arg. of periapsis63.3704°
True anomaly49.02332°
Mean anomaly48.821°
Eccentric anomaly48.92212°
Mean motion3.65328 °/min
BSTAR0.0027071
Orbital period98.54 mins
Loading maneuver chart data...

COSMOS 2251 DEB Visibility forecast

Observer location: undefined°, undefined

Span
Click to sort rows by Start time (UTC) header in descending order
Start Az.
Max El. time (UTC)
Max El. Az.
Max El.
End time (UTC)
End Az.
6 mins2024-12-12 06:56:00.398Z255.041° W2024-12-12 06:59:00.398Z302.011° NW20.926°2024-12-12 07:02:00.398Z346.327° N
8 mins2024-12-12 15:33:00.398Z355.065° N2024-12-12 15:36:00.398Z44.28° NE37.595°2024-12-12 15:41:00.398Z144.54° SSE
4 mins2024-12-12 17:15:00.398Z283.574° WNW2024-12-12 17:16:00.398Z269.837° W14.383°2024-12-12 17:19:00.398Z230.542° WSW
8 mins2024-12-13 05:55:00.398Z210.948° SW2024-12-13 05:59:00.398Z322.522° NNW41.32°2024-12-13 06:03:00.398Z12.788° NNE
|